Location: Asheville, NC
(35.6000°N, 82.5500°W)
Time: 20:40:39
(UTC-04:00)

Vanguard 2 Rocket - Pass Details

Date: 10 March 2018
Orbit: 553 x 3328 km, 32.9° (Epoch: 19 June)

Event Time Altitude Azimuth Distance (km) Brightness Sun altitude
Rises 16:14:19 0° 203° (SSW) 2,729 10.1 26.3°
Reaches altitude 10° 16:17:56 10° 167° (SSE) 1,823 8.7 25.7°
Maximum altitude 16:19:17 11° 147° (SSE) 1,766 8.4 25.4°
Drops below altitude 10° 16:20:41 10° 126° (SE) 1,916 8.4 25.2°
Sets 16:24:50 0° 93° (E) 3,115 9.2 24.4°
